| time (UTC) | temp F | wind direction | speed knots | gust knots | rain 1hr in | rain 24hr in | rain mn in | humidity % | barometer mb |
| 20260504130357 | 52 | 215 | 4.3 | 8.7 | 0.00 | 0.00 | 0.00 | 59 | 1005.0 |
| 20260504110318 | 42 | 203 | 3.5 | 7.8 | 0.00 | 0.00 | 0.00 | 70 | 1005.2 |
| 20260504100250 | 38 | 220 | 2.6 | 5.2 | 0.00 | 0.00 | 0.00 | 75 | 1005.0 |
| 20260504081243 | 39 | 201 | 3.5 | 7.0 | 0.00 | 0.00 | 0.00 | 73 | 1005.3 |
| 20260504080738 | 39 | 221 | 3.5 | 7.8 | 0.00 | 0.00 | 0.00 | 73 | 1005.2 |
| 20260504080239 | 39 | 206 | 2.6 | 7.8 | 0.00 | 0.00 | 0.00 | 73 | 1005.3 |
| 20260504070231 | 40 | 233 | 3.5 | 7.8 | 0.00 | 0.00 | 0.00 | 72 | 1005.2 |
| 20260504060203 | 43 | 155 | 1.7 | 5.2 | 0.00 | 0.00 | 0.00 | 64 | 1004.9 |
| 20260504050704 | 45 | 219 | 4.3 | 8.7 | 0.00 | 0.00 | 0.00 | 58 | 1004.7 |
| 20260504050204 | 45 | 234 | 4.3 | 7.8 | 0.00 | 0.00 | 0.00 | 58 | 1004.8 |
| 20260504045703 | 45 | 206 | 3.5 | 7.8 | 0.00 | 0.00 | 0.00 | 58 | 1004.9 |
| 20260504045204 | 45 | 228 | 3.5 | 7.8 | 0.00 | 0.00 | 0.00 | 58 | 1004.9 |
| 20260504044702 | 45 | 212 | 3.5 | 7.8 | 0.00 | 0.00 | 0.00 | 58 | 1004.8 |
| 20260504044202 | 45 | 240 | 3.5 | 7.0 | 0.00 | 0.00 | 0.00 | 58 | 1004.9 |
| 20260504043702 | 45 | 255 | 3.5 | 7.0 | 0.00 | 0.00 | 0.00 | 58 | 1004.8 |
| 20260504043202 | 45 | 240 | 3.5 | 7.8 | 0.00 | 0.00 | 0.00 | 58 | 1004.8 |
| 20260504042701 | 45 | 202 | 3.5 | 7.8 | 0.00 | 0.00 | 0.00 | 58 | 1004.8 |
| 20260504042203 | 45 | 243 | 3.5 | 7.0 | 0.00 | 0.00 | 0.00 | 58 | 1004.7 |
| 20260504041701 | 45 | 215 | 3.5 | 6.1 | 0.00 | 0.00 | 0.00 | 58 | 1004.7 |
| 20260504041201 | 45 | 221 | 2.6 | 6.1 | 0.00 | 0.00 | 0.00 | 58 | 1004.8 |
| 20260504040706 | 45 | 193 | 2.6 | 6.1 | 0.00 | 0.00 | 0.00 | 59 | 1004.7 |
| 20260504040202 | 45 | 252 | 3.5 | 6.1 | 0.00 | 0.00 | 0.00 | 58 | 1004.8 |
| 20260504035706 | 45 | 231 | 2.6 | 5.2 | 0.00 | 0.00 | 0.00 | 58 | 1004.7 |
| 20260504035204 | 45 | 243 | 2.6 | 5.2 | 0.00 | 0.00 | 0.00 | 59 | 1004.7 |
| 20260504034705 | 45 | 220 | 3.5 | 7.8 | 0.00 | 0.00 | 0.00 | 57 | 1004.8 |
| 20260504034204 | 45 | 215 | 2.6 | 7.8 | 0.00 | 0.00 | 0.00 | 58 | 1004.7 |
| 20260504033704 | 46 | 236 | 2.6 | 8.7 | 0.00 | 0.00 | 0.00 | 57 | 1004.7 |
| 20260504033508 | 46 | 236 | 2.6 | 8.7 | 0.00 | 0.00 | 0.00 | 57 | 1004.6 |
| 20260504032703 | 46 | 227 | 2.6 | 6.1 | 0.00 | 0.00 | 0.00 | 57 | 1004.7 |
| 20260504032204 | 46 | 219 | 2.6 | 6.1 | 0.00 | 0.00 | 0.00 | 56 | 1004.7 |
| 20260504032013 | 46 | 220 | 3.5 | 7.0 | 0.00 | 0.00 | 0.00 | 56 | 1004.7 |
| 20260504031205 | 46 | 223 | 3.5 | 7.0 | 0.00 | 0.00 | 0.00 | 55 | 1004.7 |
| 20260504030704 | 46 | 152 | 3.5 | 6.1 | 0.00 | 0.00 | 0.00 | 56 | 1004.6 |
| 20260504030203 | 46 | 231 | 3.5 | 6.1 | 0.00 | 0.00 | 0.00 | 56 | 1004.7 |
| 20260504025704 | 46 | 238 | 3.5 | 8.7 | 0.00 | 0.00 | 0.00 | 56 | 1004.7 |
| 20260504025203 | 46 | 248 | 3.5 | 8.7 | 0.00 | 0.00 | 0.00 | 57 | 1004.6 |
| 20260504024705 | 46 | 252 | 3.5 | 7.8 | 0.00 | 0.00 | 0.00 | 57 | 1004.6 |
| 20260504024206 | 45 | 223 | 3.5 | 7.8 | 0.00 | 0.00 | 0.00 | 57 | 1004.6 |
| 20260504023704 | 45 | 226 | 3.5 | 7.0 | 0.00 | 0.00 | 0.00 | 59 | 1004.7 |
| 20260504023203 | 45 | 230 | 2.6 | 7.0 | 0.00 | 0.00 | 0.00 | 58 | 1004.7 |
| 20260504022704 | 45 | 229 | 2.6 | 6.1 | 0.00 | 0.00 | 0.00 | 59 | 1004.7 |
| 20260504022204 | 45 | 240 | 2.6 | 6.1 | 0.00 | 0.00 | 0.00 | 59 | 1004.7 |
| 20260504021704 | 45 | 226 | 2.6 | 6.1 | 0.00 | 0.00 | 0.00 | 60 | 1004.7 |
| 20260504021205 | 44 | 283 | 2.6 | 6.1 | 0.00 | 0.00 | 0.00 | 60 | 1004.7 |
| 20260504020818 | 44 | 190 | 2.6 | 6.1 | 0.00 | 0.00 | 0.00 | 62 | 1004.8 |
| 20260504020750 | 44 | 223 | 2.6 | 5.2 | 0.00 | 0.00 | 0.00 | 61 | 1004.7 |
| 20260504020009 | 44 | 223 | 2.6 | 6.1 | 0.00 | 0.00 | 0.00 | 63 | 1004.7 |
| 20260504015203 | 43 | 226 | 2.6 | 6.1 | 0.00 | 0.00 | 0.00 | 63 | 1004.6 |
| 20260504014702 | 43 | 226 | 1.7 | 6.1 | 0.00 | 0.00 | 0.00 | 64 | 1004.6 |
| 20260504014203 | 43 | 190 | 1.7 | 3.5 | 0.00 | 0.00 | 0.00 | 66 | 1004.6 |
| 20260504013703 | 43 | 238 | 1.7 | 4.3 | 0.00 | 0.00 | 0.00 | 66 | 1004.4 |
| 20260504013322 | 44 | 258 | 1.7 | 6.1 | 0.00 | 0.00 | 0.00 | 65 | 1004.4 |
| 20260504013256 | 43 | 206 | 1.7 | 6.1 | 0.00 | 0.00 | 0.00 | 65 | 1004.3 |
| 20260504012311 | 44 | 259 | 1.7 | 2.6 | 0.00 | 0.00 | 0.00 | 65 | 1004.4 |
| 20260504012249 | 44 | 283 | 1.7 | 4.3 | 0.00 | 0.00 | 0.00 | 66 | 1004.9 |
| 20260504011201 | 44 | 236 | 1.7 | 2.6 | 0.00 | 0.00 | 0.00 | 63 | 1004.4 |
| 20260504010701 | 45 | 253 | 1.7 | 3.5 | 0.00 | 0.00 | 0.00 | 64 | 1004.4 |
| 20260504010203 | 45 | 238 | 1.7 | 3.5 | 0.00 | 0.00 | 0.00 | 61 | 1004.3 |
| 20260504005701 | 46 | 226 | 1.7 | 3.5 | 0.00 | 0.00 | 0.00 | 60 | 1004.2 |
| 20260504005202 | 46 | 269 | 1.7 | 2.6 | 0.00 | 0.00 | 0.00 | 59 | 1004.3 |
| 20260504004702 | 47 | 234 | 1.7 | 3.5 | 0.00 | 0.00 | 0.00 | 58 | 1004.2 |
| 20260504004203 | 47 | 253 | 0.9 | 3.5 | 0.00 | 0.00 | 0.00 | 57 | 1004.3 |
| 20260504003700 | 48 | 258 | 0.9 | 1.7 | 0.00 | 0.00 | 0.00 | 56 | 1004.2 |
| 20260504003508 | 48 | 222 | 0.9 | 3.5 | 0.00 | 0.00 | 0.00 | 54 | 1004.1 |
| 20260504002701 | 49 | 223 | 1.7 | 3.5 | 0.00 | 0.00 | 0.00 | 54 | 1004.1 |
| 20260504002201 | 49 | 178 | 1.7 | 3.5 | 0.00 | 0.00 | 0.00 | 52 | 1003.9 |
| 20260504001700 | 49 | 202 | 1.7 | 3.5 | 0.00 | 0.00 | 0.00 | 52 | 1004.0 |
| 20260504001200 | 50 | 223 | 1.7 | 2.6 | 0.00 | 0.00 | 0.00 | 52 | 1003.9 |
| 20260504000701 | 50 | 202 | 2.6 | 6.1 | 0.00 | 0.00 | 0.00 | 51 | 1003.9 |
| 20260504000609 | 50 | 245 | 3.5 | 8.7 | 0.00 | 0.00 | 0.00 | 50 | 1003.8 |
| 20260504000602 | 50 | 223 | 3.5 | 8.7 | 0.00 | 0.00 | 0.00 | 51 | 1003.9 |
| 20260503235456 | 50 | 238 | 3.5 | 7.0 | 0.00 | 0.00 | 0.00 | 50 | 1003.9 |
| 20260503234700 | 50 | 227 | 3.5 | 7.0 | 0.00 | 0.00 | 0.00 | 50 | 1003.8 |
| 20260503234202 | 50 | 231 | 3.5 | 7.8 | 0.00 | 0.00 | 0.00 | 49 | 1003.7 |
| 20260503233701 | 51 | 252 | 3.5 | 7.8 | 0.00 | 0.00 | 0.00 | 49 | 1003.8 |
| 20260503233501 | 51 | 277 | 3.5 | 8.7 | 0.00 | 0.00 | 0.00 | 49 | 1003.8 |
| 20260503232701 | 51 | 264 | 3.5 | 8.7 | 0.00 | 0.00 | 0.00 | 49 | 1003.7 |
| 20260503232203 | 51 | 243 | 2.6 | 8.7 | 0.00 | 0.00 | 0.00 | 49 | 1003.7 |
| 20260503231701 | 51 | 324 | 3.5 | 8.7 | 0.00 | 0.00 | 0.00 | 49 | 1003.7 |
| 20260503231202 | 51 | 269 | 2.6 | 8.7 | 0.00 | 0.00 | 0.00 | 48 | 1003.7 |
| 20260503230701 | 51 | 228 | 1.7 | 7.0 | 0.00 | 0.00 | 0.00 | 49 | 1003.7 |
| 20260503230414 | 52 | 274 | 4.3 | 10.4 | 0.00 | 0.00 | 0.00 | 48 | 1003.7 |
| 20260503230336 | 51 | 258 | 2.6 | 7.8 | 0.00 | 0.00 | 0.00 | 48 | 1003.7 |
| 20260503230100 | 51 | 269 | 4.3 | 7.8 | 0.00 | 0.00 | 0.00 | 49 | 1003.7 |
| 20260503225008 | 52 | 307 | 4.3 | 10.4 | 0.00 | 0.00 | 0.00 | 47 | 1003.7 |
| 20260503224201 | 52 | 260 | 3.5 | 8.7 | 0.00 | 0.00 | 0.00 | 47 | 1003.7 |
| 20260503223700 | 52 | 226 | 3.5 | 8.7 | 0.00 | 0.00 | 0.00 | 48 | 1003.6 |
| 20260503223201 | 52 | 274 | 3.5 | 8.7 | 0.00 | 0.00 | 0.00 | 47 | 1003.7 |
| 20260503222702 | 52 | 257 | 4.3 | 9.6 | 0.00 | 0.00 | 0.00 | 48 | 1003.7 |
| 20260503222202 | 52 | 276 | 5.2 | 12.2 | 0.00 | 0.00 | 0.00 | 48 | 1003.8 |
| 20260503221701 | 52 | 238 | 6.1 | 12.2 | 0.00 | 0.00 | 0.00 | 47 | 1003.7 |
| 20260503221159 | 52 | 308 | 5.2 | 12.2 | 0.00 | 0.00 | 0.00 | 46 | 1003.8 |
| 20260503220653 | 52 | 276 | 5.2 | 13.0 | 0.00 | 0.00 | 0.00 | 46 | 1003.7 |
| 20260503220147 | 52 | 231 | 5.2 | 13.0 | 0.00 | 0.00 | 0.00 | 46 | 1003.7 |
| 20260503215641 | 52 | 257 | 6.1 | 15.6 | 0.00 | 0.00 | 0.00 | 48 | 1003.7 |
| 20260503215135 | 52 | 243 | 7.0 | 16.5 | 0.00 | 0.00 | 0.00 | 46 | 1003.8 |
| 20260503214632 | 52 | 305 | 7.8 | 16.5 | 0.00 | 0.00 | 0.00 | 45 | 1003.8 |
| 20260503214433 | 53 | 281 | 7.8 | 20.0 | 0.00 | 0.00 | 0.00 | 45 | 1003.7 |
| 20260503213632 | 53 | 329 | 7.0 | 20.0 | 0.00 | 0.00 | 0.00 | 45 | 1003.6 |
| 20260503213441 | 53 | 6 | 6.1 | 13.9 | 0.00 | 0.00 | 0.00 | 46 | 1003.4 |
| 20260503212634 | 52 | 276 | 6.1 | 18.2 | 0.00 | 0.00 | 0.00 | 45 | 1003.5 |
| 20260503212437 | 52 | 302 | 7.0 | 18.2 | 0.00 | 0.00 | 0.00 | 45 | 1003.4 |
| 20260503211632 | 52 | 218 | 8.7 | 16.5 | 0.00 | 0.00 | 0.00 | 44 | 1003.5 |
| 20260503211133 | 52 | 238 | 8.7 | 20.0 | 0.00 | 0.00 | 0.00 | 43 | 1003.4 |
| 20260503210632 | 53 | 284 | 8.7 | 20.0 | 0.00 | 0.00 | 0.00 | 43 | 1003.2 |
| 20260503210132 | 53 | 285 | 7.8 | 15.6 | 0.00 | 0.00 | 0.00 | 41 | 1003.4 |
| 20260503205632 | 53 | 250 | 7.0 | 14.8 | 0.00 | 0.00 | 0.00 | 42 | 1003.4 |
| 20260503205133 | 53 | 89 | 5.2 | 12.2 | 0.00 | 0.00 | 0.00 | 42 | 1003.3 |
| 20260503204632 | 53 | 302 | 5.2 | 13.0 | 0.00 | 0.00 | 0.00 | 40 | 1003.2 |
| 20260503204132 | 53 | 248 | 7.0 | 15.6 | 0.00 | 0.00 | 0.00 | 42 | 1003.1 |
| 20260503203632 | 53 | 335 | 7.8 | 15.6 | 0.00 | 0.00 | 0.00 | 39 | 1003.2 |
| 20260503203134 | 53 | 265 | 7.8 | 15.6 | 0.00 | 0.00 | 0.00 | 41 | 1003.2 |
| 20260503202632 | 53 | 252 | 7.0 | 13.0 | 0.00 | 0.00 | 0.00 | 41 | 1003.2 |
| 20260503202131 | 53 | 266 | 5.2 | 13.0 | 0.00 | 0.00 | 0.00 | 40 | 1003.2 |
| 20260503201630 | 52 | 257 | 5.2 | 11.3 | 0.00 | 0.00 | 0.00 | 43 | 1003.2 |
| 20260503201129 | 52 | 253 | 7.8 | 20.0 | 0.00 | 0.00 | 0.00 | 40 | 1003.2 |
| 20260503200632 | 53 | 269 | 8.7 | 26.1 | 0.00 | 0.00 | 0.00 | 38 | 1003.3 |
| 20260503200129 | 53 | 257 | 8.7 | 26.1 | 0.00 | 0.00 | 0.00 | 39 | 1003.3 |
| 20260503195629 | 54 | 245 | 7.0 | 17.4 | 0.00 | 0.00 | 0.00 | 38 | 1003.3 |
| 20260503195443 | 54 | 269 | 4.3 | 13.9 | 0.00 | 0.00 | 0.00 | 41 | 1003.5 |
| 20260503194629 | 53 | 56 | 4.3 | 10.4 | 0.00 | 0.00 | 0.00 | 41 | 1003.4 |
| 20260503194129 | 53 | 286 | 6.1 | 16.5 | 0.00 | 0.00 | 0.00 | 40 | 1003.5 |
| 20260503193629 | 52 | 274 | 7.8 | 20.0 | 0.00 | 0.00 | 0.00 | 41 | 1003.6 |
| 20260503193130 | 52 | 290 | 7.8 | 20.0 | 0.00 | 0.00 | 0.00 | 40 | 1003.6 |
| 20260503192932 | 52 | 296 | 7.0 | 16.5 | 0.00 | 0.00 | 0.00 | 39 | 1003.7 |
| 20260503192130 | 52 | 276 | 7.8 | 17.4 | 0.00 | 0.00 | 0.00 | 42 | 1003.8 |
| 20260503191936 | 51 | 314 | 7.8 | 19.1 | 0.00 | 0.00 | 0.00 | 41 | 1003.9 |
| 20260503191130 | 51 | 284 | 7.0 | 19.1 | 0.00 | 0.00 | 0.00 | 41 | 1004.0 |
| 20260503190937 | 51 | 278 | 6.1 | 15.6 | 0.00 | 0.00 | 0.00 | 43 | 1004.1 |
| 20260503190130 | 51 | 272 | 7.0 | 14.8 | 0.00 | 0.00 | 0.00 | 41 | 1004.2 |
| 20260503185631 | 51 | 15 | 7.0 | 14.8 | 0.00 | 0.00 | 0.00 | 41 | 1004.3 |
| 20260503185131 | 51 | 308 | 7.8 | 18.2 | 0.00 | 0.00 | 0.00 | 43 | 1004.3 |
| 20260503184630 | 50 | 295 | 8.7 | 18.2 | 0.00 | 0.00 | 0.00 | 41 | 1004.4 |
| 20260503184129 | 50 | 315 | 7.8 | 16.5 | 0.00 | 0.00 | 0.00 | 42 | 1004.3 |
| 20260503183629 | 50 | 315 | 7.0 | 16.5 | 0.00 | 0.00 | 0.00 | 42 | 1004.6 |
| 20260503183129 | 50 | 290 | 7.0 | 14.8 | 0.00 | 0.00 | 0.00 | 41 | 1004.6 |
| 20260503182630 | 50 | 34 | 6.1 | 15.6 | 0.00 | 0.00 | 0.00 | 42 | 1004.6 |
| 20260503182129 | 50 | 298 | 6.1 | 15.6 | 0.00 | 0.00 | 0.00 | 45 | 1004.4 |
| 20260503181929 | 49 | 264 | 7.8 | 18.2 | 0.00 | 0.00 | 0.00 | 45 | 1004.6 |
| 20260503181129 | 49 | 278 | 8.7 | 18.2 | 0.00 | 0.00 | 0.00 | 44 | 1004.6 |
| 20260503180629 | 49 | 205 | 6.1 | 17.4 | 0.00 | 0.00 | 0.00 | 43 | 1004.6 |
| 20260503180436 | 49 | 227 | 5.2 | 12.2 | 0.00 | 0.00 | 0.00 | 47 | 1004.8 |
| 20260503175631 | 49 | 341 | 7.8 | 17.4 | 0.00 | 0.00 | 0.00 | 43 | 1004.9 |
| 20260503175130 | 49 | 291 | 9.6 | 18.2 | 0.00 | 0.00 | 0.00 | 41 | 1004.8 |
| 20260503174629 | 50 | 257 | 9.6 | 20.9 | 0.00 | 0.00 | 0.00 | 44 | 1004.9 |
| 20260503174129 | 49 | 271 | 8.7 | 20.9 | 0.00 | 0.00 | 0.00 | 45 | 1004.8 |
| 20260503173629 | 48 | 274 | 7.0 | 14.8 | 0.00 | 0.00 | 0.00 | 43 | 1004.9 |
| 20260503173129 | 48 | 286 | 7.0 | 14.8 | 0.00 | 0.00 | 0.00 | 44 | 1004.9 |
| 20260503172628 | 48 | 37 | 7.0 | 16.5 | 0.00 | 0.00 | 0.00 | 46 | 1004.9 |
| 20260503172130 | 48 | 308 | 7.0 | 16.5 | 0.00 | 0.00 | 0.00 | 43 | 1004.9 |
| 20260503171631 | 49 | 23 | 7.8 | 16.5 | 0.00 | 0.00 | 0.00 | 42 | 1004.9 |
| 20260503171129 | 49 | 312 | 7.0 | 16.5 | 0.00 | 0.00 | 0.00 | 44 | 1004.9 |
| 20260503170631 | 48 | 271 | 7.8 | 20.0 | 0.00 | 0.00 | 0.00 | 46 | 1004.9 |
| 20260503170252 | 47 | 252 | 5.2 | 14.8 | 0.00 | 0.00 | 0.00 | 44 | 1004.9 |
| 20260503170221 | 48 | 293 | 7.0 | 20.0 | 0.00 | 0.00 | 0.00 | 44 | 1004.8 |
| 20260503150633 | 42 | 295 | 7.0 | 15.6 | 0.00 | 0.00 | 0.00 | 54 | 1005.4 |
| 20260503150133 | 42 | 288 | 7.0 | 14.8 | 0.00 | 0.00 | 0.00 | 54 | 1005.3 |
| 20260503140131 | 41 | 89 | 6.1 | 13.9 | 0.00 | 0.00 | 0.00 | 60 | 1005.5 |